Hourly Weather Wilkowice

Today, 15 July, Wednesday

Time Temperature Precipitation Wind Pressure Humidity
00:00 +15°C° 0 mm 1 mps 746 mmHg 80%
01:00 +15°C° 0 mm 2 mps 746 mmHg 76%
02:00 +15°C° 0 mm 2 mps 746 mmHg 77%
03:00 +14°C° 0 mm 2 mps 745 mmHg 78%
04:00 +14°C° 0 mm 2 mps 745 mmHg 80%
05:00 +15°C° 0 mm 2 mps 745 mmHg 76%
06:00 +17°C° 0 mm 2 mps 745 mmHg 73%
07:00 +19°C° 0 mm 2 mps 745 mmHg 69%
08:00 +20°C° 0 mm 2 mps 745 mmHg 64%
09:00 +22°C° 0 mm 3 mps 745 mmHg 59%
10:00 +24°C° 0 mm 3 mps 745 mmHg 53%
11:00 +25°C° 0 mm 3 mps 744 mmHg 52%
12:00 +25°C° 0 mm 2 mps 744 mmHg 50%
13:00 +25°C° 0 mm 2 mps 744 mmHg 49%
14:00 +25°C° 0 mm 2 mps 744 mmHg 50%
15:00 +25°C° 0 mm 2 mps 744 mmHg 51%
16:00 +25°C° 0 mm 2 mps 743 mmHg 52%
17:00 +24°C° 0 mm 2 mps 743 mmHg 57%
18:00 +23°C° 0 mm 2 mps 743 mmHg 62%
19:00 +21°C° 0 mm 2 mps 743 mmHg 68%
20:00 +20°C° 0 mm 3 mps 743 mmHg 69%
21:00 +19°C° 0 mm 3 mps 743 mmHg 70%
22:00 +18°C° 0 mm 3 mps 743 mmHg 71%
23:00 +18°C° 0 mm 3 mps 743 mmHg 74%

Tomorrow, 16 July, Thursday

Time Temperature Precipitation Wind Pressure Humidity
00:00 +17°C° 0 mm 3 mps 743 mmHg 76%
01:00 +16°C° 0 mm 3 mps 743 mmHg 79%
02:00 +16°C° 0.1 mm 3 mps 743 mmHg 83%
03:00 +14°C° 0.1 mm 3 mps 742 mmHg 87%
04:00 +14°C° 0.1 mm 3 mps 742 mmHg 91%
05:00 +16°C° 0.5 mm 3 mps 742 mmHg 91%
06:00 +16°C° 0.5 mm 3 mps 743 mmHg 90%
07:00 +17°C° 0.5 mm 3 mps 743 mmHg 89%
08:00 +17°C° 0.8 mm 4 mps 743 mmHg 90%
09:00 +15°C° 0.8 mm 5 mps 743 mmHg 91%
10:00 +14°C° 0.8 mm 6 mps 743 mmHg 91%
11:00 +15°C° 0.6 mm 5 mps 743 mmHg 89%
12:00 +17°C° 0.6 mm 4 mps 743 mmHg 86%
13:00 +17°C° 0.6 mm 3 mps 743 mmHg 84%
14:00 +18°C° 0.3 mm 3 mps 743 mmHg 80%
15:00 +19°C° 0.3 mm 3 mps 743 mmHg 76%
16:00 +20°C° 0.3 mm 3 mps 743 mmHg 73%
17:00 +19°C° 0.4 mm 2 mps 743 mmHg 76%
18:00 +19°C° 0.4 mm 1 mps 743 mmHg 80%
19:00 +18°C° 0.4 mm 1 mps 743 mmHg 83%
20:00 +16°C° 0 mm 1 mps 744 mmHg 85%
21:00 +15°C° 0 mm 1 mps 744 mmHg 87%
22:00 +14°C° 0 mm 1 mps 744 mmHg 89%
23:00 +14°C° 0 mm 1 mps 744 mmHg 90%

Day after tomorrow, 17 July, Friday

Time Temperature Precipitation Wind Pressure Humidity
00:00 +14°C° 0 mm 1 mps 744 mmHg 91%
01:00 +13°C° 0 mm 2 mps 744 mmHg 92%
02:00 +13°C° 0 mm 1 mps 744 mmHg 93%
03:00 +13°C° 0 mm 1 mps 744 mmHg 93%
04:00 +12°C° 0 mm 1 mps 745 mmHg 94%
05:00 +14°C° 0 mm 1 mps 745 mmHg 90%
06:00 +15°C° 0 mm 2 mps 745 mmHg 87%
07:00 +17°C° 0 mm 2 mps 746 mmHg 84%
08:00 +18°C° 0.2 mm 2 mps 746 mmHg 79%
09:00 +19°C° 0.2 mm 2 mps 746 mmHg 74%
10:00 +20°C° 0.2 mm 2 mps 746 mmHg 69%
11:00 +20°C° 0.6 mm 2 mps 746 mmHg 67%
12:00 +21°C° 0.6 mm 2 mps 746 mmHg 65%
13:00 +21°C° 0.6 mm 2 mps 746 mmHg 64%
14:00 +21°C° 0.3 mm 2 mps 745 mmHg 63%
15:00 +23°C° 0.3 mm 2 mps 745 mmHg 63%
16:00 +22°C° 0.3 mm 3 mps 745 mmHg 63%
17:00 +21°C° 0.1 mm 2 mps 745 mmHg 68%
18:00 +20°C° 0.1 mm 2 mps 745 mmHg 73%
19:00 +19°C° 0.1 mm 2 mps 745 mmHg 78%
20:00 +18°C° 0 mm 2 mps 745 mmHg 79%
21:00 +18°C° 0 mm 2 mps 746 mmHg 80%
22:00 +17°C° 0 mm 2 mps 746 mmHg 81%
23:00 +17°C° 0 mm 2 mps 746 mmHg 82%

18 July, Saturday

Time Temperature Precipitation Wind Pressure Humidity
00:00 +16°C° 0 mm 2 mps 746 mmHg 84%
01:00 +16°C° 0 mm 2 mps 746 mmHg 85%
02:00 +15°C° 0 mm 2 mps 745 mmHg 87%
03:00 +15°C° 0 mm 2 mps 745 mmHg 89%
04:00 +15°C° 0 mm 2 mps 745 mmHg 91%
05:00 +16°C° 0 mm 2 mps 745 mmHg 90%
06:00 +17°C° 0 mm 2 mps 746 mmHg 88%
07:00 +17°C° 0 mm 2 mps 746 mmHg 87%
08:00 +19°C° 0 mm 2 mps 746 mmHg 82%
09:00 +21°C° 0 mm 2 mps 746 mmHg 76%
10:00 +22°C° 0 mm 3 mps 746 mmHg 70%
11:00 +24°C° 0.3 mm 3 mps 746 mmHg 68%
12:00 +24°C° 0.3 mm 3 mps 746 mmHg 66%
13:00 +25°C° 0.3 mm 3 mps 746 mmHg 64%
14:00 +25°C° 0.4 mm 2 mps 746 mmHg 67%
15:00 +24°C° 0.4 mm 2 mps 745 mmHg 71%
16:00 +23°C° 0.4 mm 2 mps 745 mmHg 74%
17:00 +23°C° 0.1 mm 2 mps 745 mmHg 77%
18:00 +22°C° 0.1 mm 1 mps 745 mmHg 79%
19:00 +21°C° 0.1 mm 1 mps 745 mmHg 81%
20:00 +21°C° 0.1 mm 1 mps 746 mmHg 82%
21:00 +21°C° 0.1 mm 1 mps 746 mmHg 83%
22:00 +20°C° 0.1 mm 1 mps 746 mmHg 84%
23:00 +20°C° 0 mm 1 mps 746 mmHg 85%

19 July, Sunday

Time Temperature Precipitation Wind Pressure Humidity
00:00 +20°C° 0 mm 1 mps 746 mmHg 85%
01:00 +18°C° 0 mm 0 mps 746 mmHg 86%
02:00 +20°C° 0 mm 1 mps 746 mmHg 87%
03:00 +19°C° 0 mm 1 mps 746 mmHg 88%
04:00 +19°C° 0 mm 1 mps 745 mmHg 89%
05:00 +20°C° 0 mm 1 mps 746 mmHg 86%
06:00 +20°C° 0 mm 2 mps 746 mmHg 83%
07:00 +21°C° 0 mm 2 mps 746 mmHg 80%
08:00 +23°C° 0.6 mm 2 mps 746 mmHg 76%
09:00 +24°C° 0.6 mm 2 mps 746 mmHg 71%
10:00 +26°C° 0.6 mm 2 mps 745 mmHg 67%
11:00 +26°C° 1 mm 2 mps 745 mmHg 65%
12:00 +27°C° 1 mm 2 mps 745 mmHg 63%
13:00 +27°C° 1 mm 2 mps 745 mmHg 61%
14:00 +27°C° 0.8 mm 1 mps 745 mmHg 60%
15:00 +27°C° 0.8 mm 1 mps 744 mmHg 60%
16:00 +25°C° 0.8 mm 0 mps 744 mmHg 60%
17:00 +24°C° 0.3 mm 0 mps 744 mmHg 65%
18:00 +25°C° 0.3 mm 1 mps 744 mmHg 71%
19:00 +24°C° 0.3 mm 1 mps 744 mmHg 76%
20:00 +23°C° 0.4 mm 1 mps 744 mmHg 78%
21:00 +20°C° 0.4 mm 0 mps 744 mmHg 80%
22:00 +20°C° 0.4 mm 0 mps 744 mmHg 82%
23:00 +19°C° 0.7 mm 0 mps 744 mmHg 84%

20 July, Monday

Time Temperature Precipitation Wind Pressure Humidity
00:00 +19°C° 0.7 mm 0 mps 744 mmHg 86%
01:00 +20°C° 0.7 mm 1 mps 744 mmHg 87%
02:00 +20°C° 0 mm 1 mps 744 mmHg 88%
03:00 +20°C° 0 mm 1 mps 743 mmHg 89%
04:00 +20°C° 0 mm 1 mps 743 mmHg 91%
05:00 +21°C° 0 mm 1 mps 743 mmHg 88%
06:00 +21°C° 0 mm 2 mps 743 mmHg 85%
07:00 +23°C° 0 mm 2 mps 744 mmHg 82%
08:00 +24°C° 0.1 mm 2 mps 743 mmHg 77%
09:00 +25°C° 0.1 mm 2 mps 743 mmHg 71%
10:00 +27°C° 0.1 mm 2 mps 743 mmHg 66%
11:00 +27°C° 1.1 mm 4 mps 743 mmHg 67%
12:00 +27°C° 1.1 mm 5 mps 742 mmHg 67%
13:00 +27°C° 1.1 mm 6 mps 742 mmHg 67%
14:00 +27°C° 0.5 mm 6 mps 742 mmHg 66%
15:00 +27°C° 0.5 mm 6 mps 742 mmHg 65%
16:00 +26°C° 0.5 mm 6 mps 742 mmHg 64%
17:00 +25°C° 0.1 mm 5 mps 743 mmHg 70%
18:00 +23°C° 0.1 mm 5 mps 743 mmHg 75%
19:00 +22°C° 0.1 mm 5 mps 743 mmHg 81%
20:00 +21°C° 0.1 mm 5 mps 743 mmHg 84%
21:00 +20°C° 0.1 mm 5 mps 744 mmHg 87%
22:00 +19°C° 0.1 mm 5 mps 744 mmHg 90%
23:00 +17°C° 0 mm 6 mps 745 mmHg 90%
Show more